Language: 


Des rapports , des résumés tant et plus, au choix de chacun....


Données statistiques de la station
Quotidien Rapport Mai 1, 2017 Unités:  Anglais    Métrique   les deux
« Précédent Jour
Suivant Jour »
Quotidien Hebdomadaire Mensuel Annuel Actuel
  Haut: Bas: Moyen:
Température: 62.6 °F 46 °F 52.9 °F
Pt de rosée: 50 °F 41 °F 44.8 °F
Humidité: 94 % 49 % 74 %
Vitesse du vent: 19.9 mph 0 mph 5.5 mph
Rafales: 19.9 mph - -
Vent:- - South
Pression: 29.9 in 29.5 in -
Précipitation: 0.01 in    
Historical Graphs
 
 
Données statistiques pour Mai 1, 2017
Heure Température Point de rosée Pression Vent Vitesse du vent Refales Humidité Pluie (taux horaire)
00:01 57 °F 46.4 °F 29.5 in SSW 6.3 mph 14.5 mph 65 % 0 in
00:06 56.8 °F 46.4 °F 29.5 in SSW 6 mph 14.5 mph 65 % 0 in
00:11 56.7 °F 46.4 °F 29.5 in SSW 8.7 mph 12.3 mph 66 % 0 in
00:16 56.3 °F 46.4 °F 29.5 in WSW 11 mph 12.1 mph 68 % 0 in
00:21 55.9 °F 46.4 °F 29.5 in WSW 7.6 mph 12.1 mph 68 % 0 in
00:26 55.8 °F 46.4 °F 29.5 in SW 7.4 mph 12.8 mph 70 % 0 in
00:31 55.4 °F 46.4 °F 29.5 in SSW 6 mph 12.8 mph 70 % 0 in
00:36 55.2 °F 46.4 °F 29.5 in SW 6.5 mph 11 mph 71 % 0 in
00:41 54.9 °F 46.4 °F 29.5 in South 6 mph 11 mph 73 % 0 in
00:46 54.5 °F 46.4 °F 29.5 in SW 3.6 mph 11 mph 73 % 0 in
00:51 54.3 °F 46.4 °F 29.5 in SW 3.6 mph 10.3 mph 73 % 0 in
00:56 54.1 °F 48.2 °F 29.5 in SW 6.3 mph 8.5 mph 75 % 0 in
01:01 54 °F 46.4 °F 29.5 in SW 5.6 mph 8.5 mph 75 % 0 in
01:07 53.8 °F 46.4 °F 29.5 in SSW 4.3 mph 8.7 mph 76 % 0 in
01:12 53.6 °F 48.2 °F 29.5 in SSW 10.5 mph 11.2 mph 78 % 0 in
01:17 53.6 °F 48.2 °F 29.5 in WSW 4.3 mph 11.2 mph 79 % 0 in
01:22 53.4 °F 48.2 °F 29.6 in WSW 5.6 mph 10.5 mph 80 % 0 in
01:27 53.4 °F 48.2 °F 29.6 in SW 7.4 mph 13.2 mph 82 % 0 in
01:32 53.2 °F 48.2 °F 29.6 in WSW 12.1 mph 13.2 mph 84 % 0 in
01:37 52.7 °F 48.2 °F 29.6 in South 7.4 mph 12.1 mph 85 % 0 in
01:42 52.3 °F 48.2 °F 29.6 in SSW 3.8 mph 10.3 mph 86 % 0 in
01:47 52.2 °F 48.2 °F 29.6 in WSW 4.9 mph 10.3 mph 86 % 0 in
01:52 51.8 °F 48.2 °F 29.6 in SSW 1.3 mph 10.1 mph 87 % 0 in
01:55 51.8 °F 48.2 °F 29.6 in SW 5.4 mph 10.1 mph 87 % 0 in
02:00 51.6 °F 48.2 °F 29.6 in WSW 6.3 mph 7.8 mph 88 % 0 in
02:05 51.4 °F 48.2 °F 29.6 in South 4.9 mph 10.7 mph 90 % 0 in
02:10 51.3 °F 48.2 °F 29.6 in South 4.3 mph 10.7 mph 90 % 0 in
02:15 51.3 °F 48.2 °F 29.6 in South 2.9 mph 8.7 mph 90 % 0 in
02:20 51.3 °F 48.2 °F 29.6 in South 3.4 mph 8.1 mph 90 % 0 in
02:25 51.1 °F 48.2 °F 29.6 in Calm   6.5 mph 90 % 0 in
02:30 51.1 °F 48.2 °F 29.6 in South 5.6 mph 5.8 mph 90 % 0 in
02:35 51.1 °F 48.2 °F 29.6 in South 1.6 mph 8.1 mph 90 % 0 in
02:40 51.1 °F 48.2 °F 29.6 in SSE 1.3 mph 8.1 mph 90 % 0 in
02:45 51.1 °F 48.2 °F 29.6 in South 3.6 mph 7.8 mph 91 % 0.01 in
02:50 51.1 °F 48.2 °F 29.5 in South 1.1 mph 8.1 mph 91 % 0.01 in
02:55 50.9 °F 48.2 °F 29.5 in SSE 3.8 mph 8.1 mph 92 % 0.01 in
02:57 50.9 °F 48.2 °F 29.5 in South 3.4 mph 8.1 mph 92 % 0.01 in
03:02 50.9 °F 48.2 °F 29.5 in SSW 3.4 mph 7.4 mph 92 % 0.01 in
03:07 50.9 °F 50 °F 29.5 in SSE 5.8 mph 7.4 mph 93 % 0.01 in
03:13 50.9 °F 50 °F 29.5 in SSE 1.6 mph 7.4 mph 93 % 0.01 in
03:18 50.9 °F 50 °F 29.5 in Calm   6.5 mph 93 % 0.01 in
03:23 50.9 °F 50 °F 29.6 in South 5.6 mph 7.8 mph 93 % 0.01 in
03:28 50.9 °F 50 °F 29.6 in South 2.2 mph 11.2 mph 93 % 0.01 in
03:33 50.9 °F 50 °F 29.6 in South 5.8 mph 11.2 mph 93 % 0.01 in
03:38 50.9 °F 50 °F 29.6 in SSW 2.7 mph 9.8 mph 94 % 0.01 in
03:43 50.7 °F 48.2 °F 29.6 in South 5.4 mph 9.8 mph 94 % 0.01 in
03:48 50.7 °F 48.2 °F 29.6 in South 5.6 mph 8.5 mph 94 % 0 in
03:53 50.7 °F 48.2 °F 29.6 in South 7.8 mph 9.6 mph 94 % 0 in
03:58 50.7 °F 48.2 °F 29.6 in South 8.7 mph 9.6 mph 94 % 0 in
04:03 50.7 °F 48.2 °F 29.6 in SSE 6.5 mph 11 mph 94 % 0 in
04:08 50.5 °F 48.2 °F 29.6 in SSW 6.3 mph 11 mph 94 % 0 in
04:13 50.5 °F 48.2 °F 29.6 in South 9.6 mph 9.6 mph 94 % 0 in
04:18 50.5 °F 48.2 °F 29.6 in SSW 6 mph 13.4 mph 94 % 0 in
04:23 50.4 °F 48.2 °F 29.6 in SSW 9.4 mph 13.4 mph 93 % 0 in
04:28 50.4 °F 48.2 °F 29.6 in SSW 8.1 mph 13.2 mph 92 % 0 in
04:33 50.4 °F 48.2 °F 29.6 in SSW 9.8 mph 13 mph 92 % 0 in
04:38 50.2 °F 48.2 °F 29.6 in South 6.5 mph 13 mph 91 % 0 in
04:43 50.2 °F 48.2 °F 29.6 in SW 5.8 mph 10.5 mph 91 % 0 in
04:48 50.2 °F 48.2 °F 29.6 in South 8.7 mph 10.5 mph 90 % 0 in
04:53 50.2 °F 48.2 °F 29.6 in SSW 2.9 mph 10.5 mph 90 % 0 in
04:58 50.2 °F 48.2 °F 29.6 in South 5.6 mph 10.5 mph 90 % 0 in
05:03 50.2 °F 48.2 °F 29.6 in South 6.3 mph 8.1 mph 90 % 0 in
05:08 50.2 °F 48.2 °F 29.6 in South 7.4 mph 8.5 mph 90 % 0 in
05:13 50.2 °F 48.2 °F 29.6 in South 6 mph 12.3 mph 90 % 0 in
05:19 50.2 °F 48.2 °F 29.6 in South 4 mph 12.3 mph 90 % 0 in
05:24 50.2 °F 48.2 °F 29.6 in SSW 3.8 mph 9.8 mph 89 % 0 in
05:29 50 °F 48.2 °F 29.6 in South 2.5 mph 9.2 mph 89 % 0 in
05:34 50 °F 48.2 °F 29.6 in South 6.3 mph 10.1 mph 89 % 0 in
05:39 50 °F 48.2 °F 29.6 in SSW 8.1 mph 10.3 mph 89 % 0 in
05:44 50 °F 48.2 °F 29.6 in South 4.9 mph 10.3 mph 89 % 0 in
05:49 49.8 °F 48.2 °F 29.6 in SSW 7.8 mph 9.8 mph 89 % 0 in
05:54 49.6 °F 46.4 °F 29.6 in South 7.2 mph 9.8 mph 88 % 0 in
05:59 49.5 °F 46.4 °F 29.6 in South 6.5 mph 9.8 mph 88 % 0 in
06:04 49.3 °F 46.4 °F 29.6 in SSE 6 mph 9.6 mph 88 % 0 in
06:09 49.1 °F 46.4 °F 29.6 in SSW 4.9 mph 9.6 mph 88 % 0 in
06:14 49.1 °F 46.4 °F 29.6 in SSE 4.9 mph 7.6 mph 88 % 0 in
06:19 48.9 °F 46.4 °F 29.6 in SSE 7.8 mph 10.7 mph 88 % 0 in
06:24 48.9 °F 46.4 °F 29.6 in SSE 1.6 mph 10.7 mph 89 % 0 in
06:29 48.7 °F 46.4 °F 29.6 in South 4 mph 10.5 mph 89 % 0 in
06:34 48.7 °F 46.4 °F 29.6 in SE 2.2 mph 11 mph 89 % 0 in
06:39 48.6 °F 46.4 °F 29.6 in SSE 5.4 mph 11 mph 89 % 0 in
06:44 48.6 °F 46.4 °F 29.6 in SE 6 mph 8.5 mph 89 % 0 in
06:49 48.7 °F 46.4 °F 29.6 in South 5.8 mph 8.5 mph 90 % 0 in
06:54 48.7 °F 46.4 °F 29.6 in SE 3.6 mph 9.6 mph 90 % 0 in
06:59 48.7 °F 46.4 °F 29.6 in ESE 5.8 mph 10.7 mph 90 % 0 in
07:04 48.9 °F 46.4 °F 29.6 in SE 8.1 mph 10.7 mph 89 % 0 in
07:09 48.9 °F 46.4 °F 29.6 in SSE 2.5 mph 8.7 mph 89 % 0 in
07:14 49.1 °F 46.4 °F 29.6 in SSE 3.6 mph 9.6 mph 88 % 0 in
07:19 49.1 °F 46.4 °F 29.6 in SSE 5.8 mph 10.7 mph 88 % 0 in
07:24 49.1 °F 46.4 °F 29.6 in South 3.8 mph 11 mph 87 % 0 in
07:29 49.1 °F 46.4 °F 29.6 in South 10.3 mph 11 mph 87 % 0 in
07:34 49.3 °F 46.4 °F 29.6 in SSE 3.8 mph 13.2 mph 86 % 0 in
07:39 49.3 °F 46.4 °F 29.6 in SE 9.4 mph 13.2 mph 86 % 0 in
07:44 49.3 °F 46.4 °F 29.6 in SE 5.6 mph 17.7 mph 86 % 0 in
07:50 49.5 °F 46.4 °F 29.6 in SSE 8.7 mph 17.7 mph 85 % 0 in
07:55 49.5 °F 46.4 °F 29.6 in SE 7.8 mph 14.5 mph 85 % 0 in
08:00 49.5 °F 46.4 °F 29.6 in SSW 12.1 mph 12.8 mph 85 % 0 in
08:05 49.5 °F 44.6 °F 29.6 in SSE 3.4 mph 14.8 mph 84 % 0 in
08:10 49.5 °F 44.6 °F 29.6 in SE 8.5 mph 14.8 mph 84 % 0 in
08:15 49.5 °F 44.6 °F 29.6 in SSE 0.9 mph 14.3 mph 83 % 0 in
08:20 49.5 °F 44.6 °F 29.6 in SSE 10.7 mph 15.2 mph 83 % 0 in
08:25 49.6 °F 44.6 °F 29.6 in SSE 5.8 mph 15.4 mph 83 % 0 in
08:30 49.8 °F 44.6 °F 29.6 in South 3.8 mph 15.4 mph 83 % 0 in
08:35 50 °F 44.6 °F 29.6 in SSE 5.8 mph 13.2 mph 82 % 0 in
08:40 49.8 °F 44.6 °F 29.6 in SSE 12.8 mph 15.9 mph 82 % 0 in
08:45 49.6 °F 44.6 °F 29.6 in SSW 8.5 mph 15.9 mph 83 % 0 in
08:50 49.3 °F 44.6 °F 29.6 in SSW 9.4 mph 14.8 mph 84 % 0 in
08:55 49.3 °F 46.4 °F 29.6 in South 10.5 mph 13 mph 85 % 0 in
09:01 49.1 °F 46.4 °F 29.6 in SSE 9.6 mph 13.9 mph 86 % 0 in
09:06 48.9 °F 46.4 °F 29.6 in South 9.6 mph 17.4 mph 87 % 0 in
09:11 48.7 °F 46.4 °F 29.6 in South 8.7 mph 17.4 mph 88 % 0 in
09:16 48.9 °F 46.4 °F 29.6 in SSE 10.3 mph 15.2 mph 89 % 0 in
09:21 49.5 °F 46.4 °F 29.7 in South 12.5 mph 12.5 mph 89 % 0 in
09:26 50.4 °F 48.2 °F 29.7 in SW 19.9 mph 19.9 mph 88 % 0 in
09:31 50.7 °F 46.4 °F 29.7 in SSW 10.5 mph 19.9 mph 86 % 0 in
09:36 51.3 °F 46.4 °F 29.7 in SSW 10.7 mph 19.9 mph 84 % 0 in
09:41 50.7 °F 44.6 °F 29.7 in SSE 12.5 mph 17.9 mph 81 % 0 in
09:46 50.4 °F 44.6 °F 29.7 in SSE 5.6 mph 17.9 mph 77 % 0 in
09:51 50.5 °F 44.6 °F 29.7 in SSE 12.8 mph 17.7 mph 78 % 0 in
09:56 50.5 °F 42.8 °F 29.7 in South 6 mph 19 mph 76 % 0 in
10:01 50.4 °F 42.8 °F 29.7 in South 11 mph 19 mph 76 % 0 in
10:06 50.2 °F 42.8 °F 29.7 in SSW 9.8 mph 15.7 mph 75 % 0 in
10:11 50 °F 42.8 °F 29.7 in SSW 8.7 mph 15.4 mph 74 % 0 in
10:16 49.8 °F 42.8 °F 29.7 in SSW 6.9 mph 12.8 mph 75 % 0 in
10:21 50 °F 42.8 °F 29.6 in South 13 mph 13 mph 75 % 0 in
10:27 49.8 °F 42.8 °F 29.6 in South 10.7 mph 13 mph 75 % 0 in
10:32 49.8 °F 42.8 °F 29.6 in SSW 7.6 mph 12.1 mph 75 % 0 in
10:37 49.8 °F 42.8 °F 29.7 in SSW 6.3 mph 12.1 mph 76 % 0 in
10:42 49.8 °F 42.8 °F 29.7 in SSW 4 mph 15.2 mph 76 % 0 in
10:47 50.2 °F 42.8 °F 29.7 in South 8.5 mph 15.2 mph 74 % 0 in
10:52 50.9 °F 42.8 °F 29.7 in South 6.5 mph 13.2 mph 74 % 0 in
10:57 51.1 °F 42.8 °F 29.7 in SE 10.7 mph 13.2 mph 73 % 0 in
11:02 50.9 °F 42.8 °F 29.7 in SSW 6.3 mph 13.2 mph 72 % 0 in
11:07 50.7 °F 42.8 °F 29.7 in South 7.2 mph 13.2 mph 73 % 0 in
11:12 50.7 °F 42.8 °F 29.7 in SSW 7.6 mph 12.8 mph 73 % 0 in
11:17 50.7 °F 42.8 °F 29.7 in SSW 13.4 mph 15.4 mph 72 % 0 in
11:22 51.3 °F 42.8 °F 29.7 in SSW 5.8 mph 15.4 mph 72 % 0 in
11:33 52.3 °F 42.8 °F 29.7 in WSW 11.9 mph 13.2 mph 71 % 0 in
11:38 52.3 °F 42.8 °F 29.7 in SW 5.8 mph 13.2 mph 70 % 0 in
11:43 52 °F 42.8 °F 29.7 in SSW 10.3 mph 15.2 mph 69 % 0 in
11:48 52 °F 42.8 °F 29.7 in South 6.7 mph 15.2 mph 70 % 0 in
11:53 52.5 °F 42.8 °F 29.7 in SSW 4.9 mph 13.6 mph 70 % 0 in
11:58 52.9 °F 42.8 °F 29.7 in SW 6.3 mph 12.1 mph 70 % 0 in
12:03 52.7 °F 42.8 °F 29.7 in SW 8.1 mph 12.1 mph 69 % 0 in
12:08 52.7 °F 42.8 °F 29.7 in South 7.6 mph 13 mph 68 % 0 in
12:13 52.5 °F 42.8 °F 29.7 in SW 10.5 mph 13 mph 67 % 0 in
12:18 52.5 °F 42.8 °F 29.7 in SSW 10.7 mph 14.8 mph 68 % 0 in
12:23 52.7 °F 42.8 °F 29.7 in SSW 8.5 mph 15.4 mph 66 % 0 in
12:28 52.9 °F 42.8 °F 29.7 in SW 7.6 mph 15.4 mph 66 % 0 in
12:33 53.8 °F 42.8 °F 29.7 in SW 7.8 mph 15.2 mph 66 % 0 in
12:38 54.7 °F 44.6 °F 29.7 in SSW 15.2 mph 15.2 mph 65 % 0 in
12:43 54.7 °F 42.8 °F 29.7 in South 10.7 mph 15.2 mph 63 % 0 in
12:48 54.5 °F 42.8 °F 29.7 in SSW 12.8 mph 15.4 mph 63 % 0 in
12:53 54.5 °F 42.8 °F 29.7 in SW 7.8 mph 18.8 mph 62 % 0 in
12:58 54.9 °F 42.8 °F 29.7 in SSW 7.6 mph 18.8 mph 63 % 0 in
13:03 55.4 °F 42.8 °F 29.7 in West 6.5 mph 13.9 mph 61 % 0 in
13:08 55.9 °F 44.6 °F 29.7 in SW 6.5 mph 17.2 mph 63 % 0 in
13:13 56.1 °F 42.8 °F 29.7 in SW 7.8 mph 17.2 mph 60 % 0 in
13:18 56.3 °F 42.8 °F 29.7 in South 6.5 mph 15.4 mph 59 % 0 in
13:23 57 °F 42.8 °F 29.7 in SSW 15.7 mph 15.7 mph 59 % 0 in
13:28 57 °F 42.8 °F 29.7 in WSW 13 mph 15.7 mph 58 % 0 in
13:33 56.1 °F 41 °F 29.7 in SSW 6 mph 17.4 mph 57 % 0 in
13:38 55.9 °F 41 °F 29.7 in South 6.3 mph 17.4 mph 57 % 0 in
13:43 55.6 °F 41 °F 29.7 in SSW 13 mph 17.2 mph 58 % 0 in
13:48 55.4 °F 41 °F 29.7 in SW 7.8 mph 17.7 mph 58 % 0 in
13:53 55.2 °F 42.8 °F 29.7 in SSW 9.6 mph 17.7 mph 60 % 0 in
13:58 55.4 °F 42.8 °F 29.7 in WSW 7.8 mph 15.7 mph 60 % 0 in
14:04 55.2 °F 42.8 °F 29.7 in SSW 6.3 mph 14.5 mph 60 % 0 in
14:09 55 °F 42.8 °F 29.8 in SSW 6.3 mph 13.6 mph 61 % 0 in
14:14 55.6 °F 42.8 °F 29.8 in SSW 6 mph 15.4 mph 60 % 0 in
14:19 55.6 °F 42.8 °F 29.8 in SSW 10.7 mph 15.4 mph 60 % 0 in
14:24 55.4 °F 42.8 °F 29.8 in SSW 8.7 mph 12.8 mph 60 % 0 in
14:29 55.4 °F 42.8 °F 29.8 in SSW 6.3 mph 10.7 mph 60 % 0 in
14:34 55.6 °F 42.8 °F 29.8 in South 8.7 mph 13 mph 60 % 0 in
14:39 56.3 °F 42.8 °F 29.8 in SW 6.5 mph 13 mph 61 % 0 in
14:44 56.3 °F 42.8 °F 29.8 in SSW 9.4 mph 10.7 mph 59 % 0 in
14:49 55.9 °F 42.8 °F 29.8 in SSW 6.5 mph 15.4 mph 59 % 0 in
14:54 56.5 °F 42.8 °F 29.8 in West 7.2 mph 15.4 mph 59 % 0 in
14:59 58.1 °F 44.6 °F 29.8 in South 8.7 mph 12.8 mph 60 % 0 in
15:04 58.1 °F 42.8 °F 29.8 in SSW 7.4 mph 12.5 mph 57 % 0 in
15:10 57.7 °F 42.8 °F 29.8 in SW 5.6 mph 12.5 mph 56 % 0 in
15:15 57.6 °F 42.8 °F 29.8 in SSW 10.3 mph 14.3 mph 56 % 0 in
15:20 57.4 °F 42.8 °F 29.8 in WSW 13.2 mph 14.3 mph 56 % 0 in
15:25 56.8 °F 41 °F 29.8 in South 8.1 mph 13.2 mph 56 % 0 in
15:30 56.8 °F 41 °F 29.8 in WSW 7.4 mph 15.9 mph 56 % 0 in
15:35 57.4 °F 42.8 °F 29.8 in South 5.6 mph 15.9 mph 56 % 0 in
15:40 57.6 °F 42.8 °F 29.8 in WSW 10.3 mph 13 mph 55 % 0 in
15:44 57.9 °F 42.8 °F 29.8 in WSW 4 mph 12.3 mph 56 % 0 in
15:49 57.9 °F 42.8 °F 29.8 in WSW 7.8 mph 12.8 mph 55 % 0 in
15:54 57.6 °F 42.8 °F 29.8 in SSW 7.4 mph 12.8 mph 54 % 0 in
15:59 57.9 °F 42.8 °F 29.8 in SW 8.5 mph 9.6 mph 55 % 0 in
16:05 58.1 °F 42.8 °F 29.8 in WSW 4.5 mph 12.1 mph 54 % 0 in
16:10 58.1 °F 42.8 °F 29.8 in WSW 5.8 mph 12.1 mph 53 % 0 in
16:15 58.6 °F 42.8 °F 29.8 in WSW 6.3 mph 11.9 mph 53 % 0 in
16:20 61.3 °F 44.6 °F 29.8 in South 5.8 mph 11.9 mph 52 % 0 in
16:25 62.2 °F 44.6 °F 29.8 in SW 8.5 mph 11 mph 51 % 0 in
16:30 62.6 °F 42.8 °F 29.8 in SW 3.8 mph 11 mph 49 % 0 in
16:35 60.4 °F 42.8 °F 29.8 in SE 9.6 mph 13.2 mph 50 % 0 in
16:40 59.5 °F 42.8 °F 29.8 in SSE 7.2 mph 13.2 mph 51 % 0 in
16:45 58.8 °F 42.8 °F 29.8 in SSW 11 mph 12.1 mph 53 % 0 in
16:46 58.6 °F 42.8 °F 29.8 in South 8.1 mph 12.1 mph 53 % 0 in
16:51 58.5 °F 42.8 °F 29.8 in SSE 2.9 mph 12.1 mph 53 % 0 in
16:56 59.5 °F 42.8 °F 29.8 in SSE 3.1 mph 10.7 mph 55 % 0 in
17:01 60.4 °F 44.6 °F 29.8 in SW 6.3 mph 10.7 mph 56 % 0 in
17:06 59 °F 42.8 °F 29.8 in SSE 10.7 mph 12.3 mph 55 % 0 in
17:11 58.1 °F 42.8 °F 29.8 in SSE 6 mph 12.3 mph 55 % 0 in
17:16 57.7 °F 42.8 °F 29.8 in SE 3.8 mph 13.2 mph 56 % 0 in
17:21 57.4 °F 42.8 °F 29.8 in SSW 3.6 mph 13.2 mph 57 % 0 in
17:26 56.8 °F 42.8 °F 29.8 in WSW 10.7 mph 13.2 mph 57 % 0 in
17:31 55.9 °F 42.8 °F 29.8 in SSW 7.6 mph 13.2 mph 59 % 0 in
17:36 54.7 °F 42.8 °F 29.9 in WSW 6.3 mph 10.7 mph 64 % 0 in
17:41 54.1 °F 42.8 °F 29.9 in SSW 3.4 mph 8.7 mph 66 % 0 in
17:46 54 °F 44.6 °F 29.9 in West 3.4 mph 5.8 mph 68 % 0 in
17:51 54.1 °F 44.6 °F 29.9 in WNW 3.1 mph 5.4 mph 70 % 0 in
17:56 54.3 °F 46.4 °F 29.9 in Calm   5.4 mph 71 % 0 in
18:01 55.6 °F 48.2 °F 29.9 in Calm   3.1 mph 72 % 0 in
18:06 57.2 °F 48.2 °F 29.9 in Calm   2.5 mph 72 % 0 in
18:11 58.3 °F 50 °F 29.9 in West 1.3 mph 2 mph 72 % 0 in
18:16 59 °F 48.2 °F 29.9 in Calm   1.6 mph 69 % 0 in
18:21 59.9 °F 50 °F 29.9 in Calm   3.6 mph 68 % 0 in
18:26 60.1 °F 48.2 °F 29.9 in ESE 1.6 mph 3.6 mph 65 % 0 in
18:27 60.1 °F 48.2 °F 29.9 in Calm   3.6 mph 65 % 0 in
18:32 60.6 °F 50 °F 29.9 in Calm   4.7 mph 65 % 0 in
18:37 60.1 °F 48.2 °F 29.9 in Calm   4.9 mph 63 % 0 in
18:42 58.8 °F 46.4 °F 29.9 in SSW 3.4 mph 6 mph 62 % 0 in
18:47 59.2 °F 46.4 °F 29.9 in SSW 3.1 mph 6 mph 62 % 0 in
18:52 59.7 °F 46.4 °F 29.9 in SSW 4.3 mph 7.2 mph 61 % 0 in
18:57 59.9 °F 46.4 °F 29.9 in WSW 4 mph 7.2 mph 60 % 0 in
19:02 60.3 °F 46.4 °F 29.9 in Calm   6 mph 60 % 0 in
19:07 60.3 °F 46.4 °F 29.9 in South 3.8 mph 7.6 mph 59 % 0 in
19:12 60.1 °F 46.4 °F 29.9 in South 4.3 mph 7.6 mph 58 % 0 in
19:17 59.7 °F 42.8 °F 29.9 in Calm   7.4 mph 55 % 0 in
19:22 59.7 °F 42.8 °F 29.9 in WSW 4.9 mph 7.8 mph 55 % 0 in
19:27 59.5 °F 42.8 °F 29.9 in South 3.8 mph 7.8 mph 54 % 0 in
19:32 59.4 °F 42.8 °F 29.9 in SSW 1.6 mph 7.4 mph 54 % 0 in
19:37 59.2 °F 42.8 °F 29.9 in SSE 3.8 mph 6 mph 54 % 0 in
19:42 59.2 °F 42.8 °F 29.9 in Calm   7.4 mph 55 % 0 in
19:47 59 °F 42.8 °F 29.9 in South 2.7 mph 7.4 mph 55 % 0 in
19:52 58.6 °F 42.8 °F 29.9 in SE 1.6 mph 6.5 mph 56 % 0 in
19:58 58.1 °F 42.8 °F 29.9 in Calm   5.6 mph 56 % 0 in
20:03 57.4 °F 42.8 °F 29.9 in Calm   5.8 mph 57 % 0 in
20:08 56.8 °F 42.8 °F 29.9 in Calm   5.8 mph 57 % 0 in
20:13 56.5 °F 42.8 °F 29.9 in Calm   6.7 mph 57 % 0 in
20:18 55.9 °F 41 °F 29.9 in Calm   6.7 mph 57 % 0 in
20:23 55.8 °F 42.8 °F 29.8 in Calm   4.3 mph 58 % 0 in
20:28 55.4 °F 42.8 °F 29.8 in ESE 1.1 mph 4.5 mph 59 % 0 in
20:33 54.9 °F 42.8 °F 29.8 in SE 5.6 mph 5.6 mph 61 % 0 in
20:38 54.5 °F 42.8 °F 29.9 in East 4 mph 6.5 mph 63 % 0 in
20:43 54.1 °F 42.8 °F 29.9 in ESE 3.4 mph 6.5 mph 63 % 0 in
20:48 53.8 °F 42.8 °F 29.9 in East 4 mph 6.5 mph 66 % 0 in
20:53 53.4 °F 42.8 °F 29.9 in East 1.6 mph 7.2 mph 67 % 0 in
20:58 53.1 °F 42.8 °F 29.9 in ESE 4.9 mph 7.2 mph 67 % 0 in
21:03 52.9 °F 42.8 °F 29.9 in ESE 4.9 mph 6.3 mph 68 % 0 in
21:08 52.7 °F 42.8 °F 29.9 in ESE 2.2 mph 5.4 mph 69 % 0 in
21:13 52 °F 42.8 °F 29.9 in Calm   5.8 mph 69 % 0 in
21:18 51.6 °F 42.8 °F 29.9 in East 3.1 mph 5.8 mph 71 % 0 in
21:23 51.3 °F 42.8 °F 29.9 in Calm   4.9 mph 71 % 0 in
21:28 50.9 °F 42.8 °F 29.9 in Calm   3.1 mph 72 % 0 in
21:33 50.5 °F 42.8 °F 29.9 in Calm   3.8 mph 72 % 0 in
21:38 50.4 °F 42.8 °F 29.9 in Calm   3.8 mph 72 % 0 in
21:43 50.2 °F 42.8 °F 29.9 in Calm     74 % 0 in
21:49 50 °F 42.8 °F 29.9 in Calm   3.8 mph 74 % 0 in
21:54 49.8 °F 42.8 °F 29.9 in Calm   5.4 mph 75 % 0 in
21:59 49.6 °F 42.8 °F 29.9 in Calm   5.4 mph 75 % 0 in
22:04 49.5 °F 42.8 °F 29.9 in Calm   3.8 mph 75 % 0 in
22:09 49.1 °F 42.8 °F 29.9 in Calm   3.4 mph 75 % 0 in
22:14 48.9 °F 42.8 °F 29.9 in East 1.1 mph 4.9 mph 76 % 0 in
22:19 48.7 °F 42.8 °F 29.9 in East 1.1 mph 4.9 mph 75 % 0 in
22:24 48.4 °F 41 °F 29.9 in Calm   4.3 mph 76 % 0 in
22:29 48.2 °F 41 °F 29.9 in Calm   4.3 mph 76 % 0 in
22:34 48.2 °F 41 °F 29.9 in Calm   4.5 mph 76 % 0 in
22:39 48 °F 42.8 °F 29.9 in ENE 2 mph 4.5 mph 77 % 0 in
22:44 47.8 °F 42.8 °F 29.9 in East 4.3 mph 4.9 mph 78 % 0 in
22:49 47.8 °F 42.8 °F 29.9 in East 4.7 mph 5.8 mph 78 % 0 in
22:54 47.8 °F 42.8 °F 29.9 in Calm   5.8 mph 79 % 0 in
22:59 47.7 °F 42.8 °F 29.9 in ESE 2.9 mph 4.9 mph 79 % 0 in
23:04 47.7 °F 42.8 °F 29.9 in Calm   4.7 mph 79 % 0 in
23:09 47.5 °F 42.8 °F 29.9 in Calm   4.7 mph 80 % 0 in
23:14 47.3 °F 42.8 °F 29.9 in East 1.3 mph 4.7 mph 80 % 0 in
23:19 47.3 °F 42.8 °F 29.9 in Calm   3.6 mph 80 % 0 in
23:29 47.1 °F 42.8 °F 29.9 in Calm   3.6 mph 80 % 0 in
23:34 46.9 °F 42.8 °F 29.9 in ENE 0.9 mph 3.6 mph 80 % 0 in
23:36 46.8 °F 41 °F 29.9 in East 0.9 mph 3.6 mph 80 % 0 in
23:41 46.6 °F 41 °F 29.9 in Calm   3.8 mph 80 % 0 in
23:46 46.4 °F 41 °F 29.9 in Calm   3.8 mph 80 % 0 in
23:51 46.2 °F 41 °F 29.9 in Calm   2.2 mph 81 % 0 in
23:56 46 °F 41 °F 29.9 in Calm   2.2 mph 81 % 0 in
Le Gheer Warneton
Courtoisie de Weather Underground - 2.25 mb

Mise a jour : 18/12/2017 23:22:12
Généré par Cumulus 1.9.4 (1099)